Location: Newark
(34.0635°N, 86.7609°W)
Time: 01:33:19
(UTC+00:00)

ISS - Visible Passes

Search period start: 07 December 2019 00:00
Search period end: 17 December 2019 00:00
Orbit: 411 x 421 km, 51.6° (Epoch: 07 December)

Date Brightness Start Highest point End Pass type
(mag) Time Alt. Az. Time Alt. Az. Time Alt. Az.
08 Dec -1.2 00:28:06 10° NNW 00:28:44 14° NNW 00:28:44 14° NNW visible
08 Dec -2.3 23:39:59 10° NNW 23:42:35 20° NNE 23:42:50 20° NE visible
10 Dec -2.9 00:27:37 10° NW 00:30:11 48° WNW 00:30:11 48° WNW visible
10 Dec -3.7 23:39:09 10° NW 23:42:28 56° NE 23:45:00 16° ESE visible
12 Dec -1.1 00:27:56 10° W 00:30:28 20° SW 00:33:01 10° S visible
12 Dec -2.2 23:38:55 10° WNW 23:42:03 39° SW 23:45:12 10° SSE visible
14 Dec -0.2 23:40:08 10° WSW 23:41:24 12° SW 23:42:40 10° SSW visible
